Regional Weather Roundup
Issued by NWS

Current Version | Previous Version | Text Only | Print | Product List | Glossary On
Versions: 1 2 3 4 5 6 7 8 9 10 11 12 13 14 15 16 17 18 19 20 21 22 23 24 25 26 27 28 29 30 31 32 33 34 35 36 37 38 39 40 41 42 43 44 45 46 47 48 49 50
000
ASUS44 KMEG 041600
RWRTN
TENNESSEE HOURLY STATE WEATHER ROUNDUP
NATIONAL WEATHER SERVICE MEMPHIS TN
1100 AM CDT TUE AUG 04 2015

TNZ002-004-019-021-049-052-054-088>092-041700-
WEST TENNESSEE

CITY           SKY/WX    TMP DP  RH WIND       PRES   REMARKS
MEMPHIS INTL   MOSUNNY   93  68  43 W6        30.01S HX  97
NWS MEMPHIS      N/A     92 N/A N/A MISG        N/A
JACKSON        SUNNY     93  70  46 W6        30.02R HX  99
DYERSBURG        N/A    N/A N/A N/A MISG        N/A
PARIS          SUNNY     90  72  55 SW8       30.02S HX  96
LEXINGTON      SUNNY     90  72  55 VRB5      30.03R HX  96
$$

TNZ008-025-027-028-033-062-065-066-041700-
NORTH MIDDLE TENNESSEE

CITY           SKY/WX    TMP DP  RH WIND       PRES   REMARKS
NASHVILLE      MOSUNNY   92  67  43 W3        30.03S HX  95
CLARKSVILLE    SUNNY     88  70  55 SW8       30.01S HX  93
COOKEVILLE     SUNNY     91  73  55 VRB6      30.05S HX 100
CROSSVILLE     MOSUNNY   85  65  51 NW7       30.11R
$$

TNZ061-075-076-078-094-096-097-041700-
SOUTH MIDDLE TENNESSEE

CITY           SKY/WX    TMP DP  RH WIND       PRES   REMARKS
FAYETTEVILLE     N/A     90  68  48 CALM      30.06R HX  93
TULLAHOMA      SUNNY     90  66  45 CALM      30.07S HX  92
WINCHESTER     SUNNY     90  70  51 NW3       30.06R HX  95
MCMINNVILLE    SUNNY     90  72  55 W5        30.06S HX  96
COLUMBIA       MOSUNNY   91  72  52 E3        30.03R HX  98
SHELBYVILLE    SUNNY     93  72  49 VRB5      30.05S HX 100
$$

TNZ017-018-042-046-047-041700-
NORTHEAST TENNESSEE

CITY           SKY/WX    TMP DP  RH WIND       PRES   REMARKS
TRI CITIES     PTSUNNY   84  65  52 VRB5      30.08S
ELIZABETHTON   SUNNY     82  64  54 VRB3      30.09R
$$

TNZ012-013-036-069-073-074-041700-
CENTRAL EAST TENNESSEE

CITY           SKY/WX    TMP DP  RH WIND       PRES   REMARKS
KNOXVILLE      PTSUNNY   87  67  51 VRB6      30.04S HX  90
OAK RIDGE      MOSUNNY   87  69  54 VRB5      30.06R HX  91
GATLINBURG       N/A     88  63  42 NW6       30.04F
$$

TNZ083-085-099-041700-
SOUTHEAST TENNESSEE

CITY           SKY/WX    TMP DP  RH WIND       PRES   REMARKS
CHATTANOOGA    MOSUNNY   90  68  48 NW5       30.04S HX  94
$$

SKY/WX REPORTED AS FAIR MEANS FEW OR NO CLOUDS BELOW
12 THOUSAND FEET.



USA.gov is the U.S. government's official web portal to all federal, state and local government web resources and services.